This is the latest recevied weather packets stored in our database for station/object SP2JGY-2. If no packets are shown the sender has not sent any weather packets the latest 10 day(s).
| Time | Temp. | Humidity | Pressure | Rain* | Wind** | Luminosity | Snow |
|---|---|---|---|---|---|---|---|
| 1777714790 | 23.33° C | 21% | 1022.3 hPa | - | - | - | - |
| 1777713890 | 22.22° C | 23% | 1022.6 hPa | - | - | - | - |
| 1777712989 | 22.22° C | 22% | 1022.8 hPa | - | - | - | - |
| 1777712089 | 21.67° C | 25% | 1023 hPa | - | - | - | - |
| 1777711189 | 20.56° C | 25% | 1023.2 hPa | - | - | - | - |
| 1777710289 | 21.11° C | 27% | 1023.3 hPa | - | - | - | - |
| 1777709389 | 20° C | 29% | 1023.5 hPa | - | - | - | - |
| 1777708489 | 19.44° C | 31% | 1023.7 hPa | - | - | - | - |
| 1777707588 | 18.89° C | 33% | 1023.7 hPa | - | - | - | - |
| 1777706688 | 18.33° C | 38% | 1023.8 hPa | - | - | - | - |
| 1777705788 | 17.78° C | 39% | 1023.9 hPa | - | - | - | - |
| 1777704888 | 16.67° C | 41% | 1023.9 hPa | - | - | - | - |
| 1777703988 | 15.56° C | 43% | 1024.1 hPa | - | - | - | - |
| 1777703088 | 15° C | 45% | 1024.2 hPa | - | - | - | - |
| 1777702187 | 14.44° C | 47% | 1024.2 hPa | - | - | - | - |
| 1777701287 | 13.33° C | 50% | 1024.2 hPa | - | - | - | - |
| 1777700387 | 12.22° C | 50% | 1024.2 hPa | - | - | - | - |
| 1777699487 | 11.67° C | 51% | 1024.3 hPa | - | - | - | - |
| 1777697687 | 10° C | 53% | 1024.3 hPa | - | - | - | - |
| 1777696786 | 9.44° C | 53% | 1024.4 hPa | - | - | - | - |
| 1777695889 | 8.33° C | 55% | 1024.3 hPa | - | - | - | - |
| 1777694986 | 8.89° C | 53% | 1024.4 hPa | - | - | - | - |
| 1777694086 | 8.89° C | 53% | 1024.4 hPa | - | - | - | - |
| 1777693186 | 8.33° C | 54% | 1024.5 hPa | - | - | - | - |
| 1777692286 | 8.33° C | 54% | 1024.5 hPa | - | - | - | - |
* Rain since midnight (hover to see other rain measurements)
** Current wind speed in m/s (hover to see current wind gust speed)